www.pogodaiklimat.ru

Погода и климат >> Архив погоды >> Литва >> Паневежис


ПОГОДА в Паневежисе

  • Прогноз погоды в Паневежисе
  • Монитор погоды в Паневежисе

АРХИВ ПОГОДЫ в Паневежисе

Время (UTC), дата Ветер
(напр.,м/с)
 
Видим.   Явления Облачность Т
(С)
Тd
(С)
f
(%)
Тe
(С)
Тes
(С)
Комфортность P
(гПа)
Po
(гПа)
Тmin
(С)
Tmax
(С)
R
(мм)
R24
(мм)
S
(см)
15 16.07 ЮЗ 1-3
{6}
7000 м сильн. дождь 9/9 600 м
[]
+15.1 +12.0 82 +16 +16 1006.2 999.3 7
18 16.07 З 2-5
{5}
15 км слаб. дождь 9/9 600 м
[]
+14.8 +12.8 88 +14 +14 1006.2 999.3 +17.7 8
21 16.07 СЗ 1-3
{6}
20 км в посл. час дождь 9/9 100 м
[]
+12.4 +11.5 94 +12 +12 1006.1 999.1 6
00 17.07 СЗ 3-4
{5}
600 м туман 10/0
[]
+12.0 +11.7 98 +10 +10 1006.3 999.3 6
03 17.07 СЗ 3-5
{6}
16 км 10/10 100 м
[]
+12.0 +11.4 96 +10 +10 1006.0 999.0
06 17.07 СЗ 2-4
{5}
17 км слаб. ливневой дождь 10/10 100 м
[]
+12.3 +11.7 96 +11 +11 1006.3 999.3 +11.8 6
09 17.07 СЗ 1-3
{5}
20 км слаб. дождь 9/9 1500 м
[]
+14.4 +13.3 93 +15 +16 1006.7 999.8 0.8
12 17.07 С 2-4
{6}
18 км ливневой дождь 9/9 1500 м
[]
+15.0 +13.9 93 +15 +16 1007.0 1000.1 3
15 17.07 З 1-3
{4}
20 км 9/9 600 м
[]
+17.7 +13.9 78 +19 +19 1007.2 1000.3 2
18 17.07 штиль 0-1
{5}
20 км ясно +15.9 +14.3 90 +16 +16 1007.9 1001.0 +17.9 4
21 17.07 СЗ 1-2
{3}
19 км 8/0
[]
+13.3 +12.6 96 +13 +13 1008.6 1001.6 0.7
00 18.07 СЗ 3-4
{5}
19 км 1/0
[]
+13.5 +13.0 97 +12 +12 1008.8 1001.8
03 18.07 СЗ 3-5
{5}
16 км 5/5 100 м
[]
+12.1 +11.6 97 +10 +10 1009.0 1002.0
06 18.07 СЗ 4-7
{7}
9000 м дымка 10/10 100 м
[]
+14.1 +13.5 96 +13 +13 1009.7 1002.7 +12.0
09 18.07 С 5-7
{7}
20 км 4/4 600 м
[]
+19.1 +13.6 70 +20 +24 1009.4 1002.6
12 18.07 С 6-10
{11}
20 км 5/0 2000 м
[]
+21.1 +10.0 49 +23 +26 комфорт 1009.5 1002.7
15 18.07 С 6-9
{12}
20 км ясно +22.1 +8.6 42 +23 +25 комфорт 1009.6 1002.8
18 18.07 С 3-4
{10}
20 км ясно +20.4 +9.0 48 +22 +22 комфорт 1010.3 1003.5 +22.4
21 18.07 СЗ 2-3
{6}
20 км ясно +16.0 +11.4 74 +16 +16 1011.3 1004.4
00 19.07 СЗ 2-3
{5}
20 км ясно +13.6 +10.8 83 +13 +13 1012.2 1005.2
03 19.07 З 2-3
{4}
20 км ясно +12.2 +10.3 88 +11 +11 1012.6 1005.6
06 19.07 СЗ 3-4
{5}
20 км ясно +16.6 +11.2 70 +16 +21 1012.7 1005.8 +12.1
09 19.07 З 4-7
{8}
20 км ясно +21.2 +10.4 50 +23 +32 комфорт 1012.6 1005.8
12 19.07 СЗ 5-8
{9}
20 км 5/0
[]
+23.3 +8.6 39 +25 +30 комфорт 1012.5 1005.7
15 19.07 СЗ 4-7
{9}
20 км 3/0
[]
+23.7 +8.1 37 +24 +27 комфорт 1012.3 1005.5
18 19.07 С 2-3
{8}
20 км 9/9 1500 м
[]
+21.3 +11.0 52 +23 +23 комфорт 1012.7 1005.9 +24.4
21 19.07 штиль 0
{4}
20 км ясно +14.6 +11.0 79 +14 +14 1014.1 1007.1
00 20.07 штиль 0 8000 м дымка ясно +11.5 +10.1 91 +11 +11 1015.0 1007.9
03 20.07 штиль 0 9000 м в посл. час туман ясно +10.3 +9.4 94 +9 +10 1015.8 1008.7
06 20.07 штиль 0-1
{2}
20 км ясно +18.1 +11.3 64 +18 +26 1016.2 1009.3 +9.7
09 20.07 С 1-5
{5}
20 км ясно +22.0 +10.1 47 +24 +40 комфорт 1016.5 1009.7
12 20.07 СЗ 3-5
{6}
20 км ясно +24.7 +8.6 36 +25 +36 комфорт 1016.5 1009.7
15 20.07 С 1-4
{5}
20 км ясно +25.7 +8.2 33 +26 +32 жарко 1016.0 1009.3
18 20.07 СВ 2-2
{4}
20 км ясно +23.6 +8.8 39 +24 +24 комфорт 1016.3 1009.5 +26.2
21 20.07 штиль 0
{3}
20 км ясно +14.9 +10.9 77 +15 +15 1017.6 1010.6
00 21.07 штиль 0-2
{2}
20 км ясно +12.6 +9.7 82 +12 +12 1017.8 1010.7
03 21.07 штиль 0-2
{2}
20 км 1/0
[]
+12.5 +9.3 81 +12 +12 1017.4 1010.3
06 21.07 В 2-3
{4}
20 км ясно +21.0 +12.1 57 +24 +30 комфорт 1017.1 1010.2 +11.8
09 21.07 ЮВ 3-6
{7}
19 км ясно +26.8 +13.5 44 +29 +40 жарко 1016.4 1009.7
12 21.07 Ю 2-6
{6}
20 км 8/0
[]
+28.8 +12.1 36 +30 +38 жарко 1015.5 1008.8
15 21.07 Ю 1-3
{6}
20 км 5/0
[]
+27.6 +12.7 40 +29 +33 жарко 1014.5 1007.8
18 21.07 СЗ 3-5
{8}
20 км 6/0
[]
+22.7 +14.9 61 +26 +27 жарко 1015.0 1008.2 +29.4
21 21.07 СЗ 1-3
{5}
20 км слаб. ливневой дождь 10/10 1500 м
[]
+20.2 +15.6 75 +24 +24 комфорт 1015.2 1008.3 0.0
00 22.07 З 2-4
{6}
10 км слаб. дождь 9/0
[]
+18.1 +17.0 93 +19 +19 1015.9 1009.0 14
03 22.07 З 3-6
{6}
7000 м дымка 10/10 200 м
[]
+17.1 +16.3 95 +17 +17 1015.5 1008.6 16
06 22.07 З 2-3
{6}
20 км 9/9 300 м
[]
+17.5 +15.7 89 +18 +18 1016.2 1009.3 +16.9 16
09 22.07 З 4-5
{5}
19 км 9/9 1000 м
[]
+19.2 +15.9 81 +21 +22 комфорт 1016.4 1009.5
12 22.07 З 4-9
{9}
20 км 8/8 600 м
[]
+22.1 +15.1 65 +26 +27 душно 1015.7 1008.9
15 22.07 З 4-6
{9}
20 км в посл. час дождь 9/0
[]
+19.0 +15.3 79 +20 +22 1015.7 1008.8
21 22.07 З 4-7
{8}
20 км 9/9 1000 м
[]
+16.5 +14.5 88 +16 +16 1016.4 1009.4
03 23.07 З 2-4
{7}
20 км ясно +13.3 +12.2 93 +13 +13 1016.0 1009.0
09 23.07 СЗ 4-6
{8}
20 км 9/9 1000 м
[]
+20.0 +13.5 66 +22 +23 комфорт 1016.1 1009.2

 

Местоположение метеостанции Паневежис (Литва): широта 55.74 долгота 24.42 высота над уровнем моря 58 м.

В архиве по умолчанию представлена погода в Паневежисе за последнюю неделю. Архивные данные за месяц целиком и за предыдущие месяцы, начиная с января 2011 года, Вы можете получить, выбрав интересующий диапазон дат из раскрывающегося списка и нажав кнопку "Ввод!".


*Определитесь, кто Вы:
робот инопланетянин человек

Внимание! Время в таблицах - всемирное. Для получения местного времени необходимо прибавить поправку, которая равна 2 ч.

Смотрите также архив погоды в соседних городах и на ближайших метеорологических станциях:

Погода в Биржае (Литва) (56 км)
Погода в Укмерге (Литва) (58 км)
Погода в Шяуляе (Литва) (72 км)
Погода в Бауске (Латвия) (74 км)
Погода в Утене (Литва) (78 км)
Погода в Расейняе (Литва) (89 км)
Погода в Каунасе (Литва) (103 км)
Погода в Елгаве (Латвия) (110 км)
Погода в Скриверу (Латвия) (110 км)
Погода в Добеле (Латвия) (119 км)

Пояснения к столбцам:

Ветер - указаны скорость ветра в м/с - средняя за 10 мин, порывы в срок и между сроками (в фигурных скобках) и направление, откуда дует ветер: С - северный, СВ - северо-восточный, В - восточный, ЮВ - юго-восточный, Ю - южный, ЮЗ - юго-западный, З - западный, СЗ - северо-западный.
Видимость - горизонтальная дальность видимости в метрах или километрах. При видимости от 1 до 10 км при отсутствии осадков обычно наблюдается дымка, при ухудшении видимости до 1 км и менее - туман. В сухую погоду видимость может ухудшаться дымом, пылью или мглою.
Явления - указаны атмосферные явления, наблюдавшиеся в срок или в последний час перед сроком; фигурными скобками обозначены явления, наблюдавшиеся между сроками (за 1-3 часа до срока); квадратными скобками обозначены град или гололедные отложения с указанием их диаметра в мм.
Облачность - указаны через наклонную черту общая и нижняя облачность в баллах и высота нижней границы облаков в метрах; квадратными скобками обозначены формы облаков: Ci - перистые, Cs - перисто-слоистые, Cc - перисто-кучевые, Ac - высококучевые, As - высокослоистые, Sc - слоисто-кучевые, Ns - слоисто-дождевые, Cu - кучевые, Cb - кучево-дождевые. Подробнее классификацию облаков см. в Атласе облаков (PDF).
T - Температура воздуха - температура, измеренная на высоте 2 м над землей.
Td - Температура точки росы - температура, при понижении до которой содержащийся в воздухе водяной пар достигнет насыщения.
f - Относительная влажность воздуха - влажноcть воздуха, измеренная на высоте 2 м над землей.
Te - Эффективная температура - температура, которую ощущает одетый по сезону человек в тени. Характеристика душности погоды. При расчете учитывается влияние влажности воздуха и скорости ветра на теплоощущения человека.
Tes - Эффективная температура на солнце - температура, которую ощущает человек, с поправкой на солнечный нагрев. Характеристика знойности погоды. Зависит от высоты солнца над горизонтом, облачности и скорости ветра. Ночью, в пасмурную погоду, а также при ветре 12 м/с и более поправка равна нулю.
P - Атмосферное давление - приведенное к уровню моря атмосферное давление.
Po - Атмосферное давление - измеренное на уровне метеостанции атмосферное давление.
Tmin - Минимальная температура - минимум температуры воздуха на высоте 2 м над землей.
Tmax - Максимальная температура - максимум температуры воздуха на высоте 2 м над землей.
R - Количество осадков - Количество выпавших осадков за период времени, мм. При наведении курсора мыши на число - период времени, за который выпало указанное количество осадков.
R24 - Количество осадков - Количество выпавших осадков за 24 часа, мм.
S - Снежный покров - Высота снежного покрова, см. При наведении курсора мыши на число - состояние снежного покрова и степень покрытия местности в баллах.